[[{"header":{"parameterUnit":"m.s-1","parameterCategory":1,"la1":30.2991,"la2":30.254,"lo1":-89.0895,"lo2":-89.0444,"dy":0.0017,"dx":0.0017,"nx":28,"ny":28,"refTime":"2025-04-08T03:00:00:Z","depth":0,"parameterNumber":2,"parameterNumberName":"U-component_of_WINDS"},"data":[0,0,0,0,0,0,0,0,0,0,0,0,0,0,0,0,0,0,0,0,0,0,0,0,0,0,0,0,0,0,0,0,0,0,0,0,0,0,0,0,0,0,0,0,0,0,0,0,0,0,0,0,0,0,0,0,0,0,1.8432,1.8432,0,1.8417,1.8416,1.8416,1.8374,1.8373,1.8372,1.8372,1.8357,1.8358,1.8358,0,0,0,0,0,0,0,0,0,0,0,0,0,1.8426,1.8427,1.8432,1.8432,1.8432,1.8417,1.8416,1.8416,1.8374,1.8373,1.8372,1.8371,1.8357,1.8357,1.8358,0,0,0,0,0,0,0,0,0,0,0,0,0,1.8422,1.8427,1.8432,1.8409,1.8407,1.8417,1.8416,1.8416,1.8375,1.8373,1.8372,1.8371,1.8357,1.8357,1.8358,1.839,0,0,1.836,1.8361,0,0,0,0,0,0,0,0,1.8422,1.8422,1.8412,1.841,1.8408,1.8396,1.8409,1.8407,1.8375,1.8387,1.8372,1.837,1.8371,1.8371,1.8371,1.8389,1.8388,1.836,1.8361,1.8361,1.8361,0,0,0,0,0,0,0,1.8422,1.8422,1.8426,1.8412,1.841,1.84,1.8398,1.8409,1.8387,1.8386,1.8383,1.8381,1.837,1.837,1.837,1.8388,1.836,1.8361,1.8361,1.8362,1.8431,1.8433,0,0,0,0,0,0,1.8426,1.8423,1.8426,1.8425,1.8412,1.8401,1.8399,1.8401,1.8387,1.8383,1.8383,1.8379,1.837,1.8369,1.8369,1.8405,1.8361,1.8362,1.8362,1.843,1.8432,1.8433,0,0,0,0,0,0,1.8426,1.8427,1.8427,1.8423,1.8423,1.8402,1.8406,1.8402,1.8402,1.8384,1.838,1.8387,1.8369,1.8368,1.8385,1.8404,1.8362,1.8363,1.8428,1.843,1.8432,1.8476,0,0,0,0,0,0,1.8426,1.8427,1.8438,1.8424,1.8423,1.8442,1.8407,1.8402,1.8403,1.8399,1.8387,1.8384,1.8368,1.8384,1.8386,1.8404,1.8363,1.8426,1.8429,1.8432,1.8473,1.848,1.8485,0,0,0,0,0,1.8426,1.8451,1.8439,1.844,1.8437,1.8443,1.8443,1.8423,1.8405,1.8416,1.8405,1.8384,1.8402,1.8386,1.8387,1.8406,1.8425,1.8428,1.8432,1.847,1.8478,1.8485,0,0,0,0,0,0,1.8469,1.8449,1.8435,1.8457,1.8452,1.8436,1.845,1.8432,1.8433,1.8429,1.8405,1.8403,1.8422,1.8416,1.8399,1.8436,1.841,1.8414,1.8439,1.8447,1.8453,1.8453,1.8364,0,0,0,0,0,1.8481,1.8487,1.847,1.8491,1.8489,1.847,1.8472,1.8458,1.8452,1.845,1.844,1.8435,1.844,1.8443,1.8446,1.8473,1.8469,1.8486,1.8492,1.8498,1.8501,1.8514,1.8521,1.8444,1.8444,1.8444,0,0,1.8505,1.8495,1.8501,1.8499,1.8494,1.8501,1.8469,1.8478,1.8484,1.8451,1.8466,1.8458,1.8452,1.8473,1.8482,1.8469,1.8521,1.8502,1.8506,1.8506,1.8518,1.8525,1.8531,1.8446,1.8446,1.8445,0,0,1.8554,1.8547,1.8563,1.8559,1.8551,1.8538,1.8543,1.853,1.8523,1.8538,1.8513,1.852,1.8528,1.8525,1.8524,1.8572,1.8553,1.8574,1.8606,1.8619,1.8625,1.863,1.8646,1.8652,1.8577,1.8578,1.8578,0,1.8585,1.8595,1.8574,1.8585,1.8585,1.8556,1.8573,1.8569,1.8563,1.8564,1.8549,1.8559,1.8553,1.8572,1.8584,1.8585,1.8589,1.8574,1.8625,1.863,1.8635,1.865,1.8657,1.858,1.858,1.8579,1.8579,0,1.8634,1.8642,1.8656,1.865,1.8652,1.8666,1.8647,1.8652,1.8637,1.8626,1.8641,1.8633,1.8634,1.8638,1.8624,1.8656,1.8648,1.863,1.8603,1.8645,1.8659,1.8665,1.8584,1.8583,1.8582,1.8581,0,0,1.8707,1.8691,1.8696,1.8693,1.8683,1.8688,1.8702,1.8702,1.8706,1.8703,1.8713,1.8721,1.8705,1.8704,1.869,1.8701,1.8739,1.8682,1.8681,1.8692,1.8773,1.8786,1.8793,1.8727,1.8728,1.8729,1.8773,0,1.8752,1.8772,1.8754,1.8778,1.8784,1.8758,1.8769,1.8764,1.8755,1.876,1.875,1.8755,1.8733,1.8732,1.8743,1.8732,1.8755,1.8729,1.8736,1.8736,1.8737,1.88,1.8813,1.8855,1.8779,1.878,1.878,0,1.8806,1.8806,1.883,1.8818,1.8821,1.8831,1.883,1.8835,1.8829,1.8822,1.8821,1.8804,1.8816,1.8791,1.8808,1.8791,1.8793,1.8788,1.8789,1.8788,1.876,1.8799,1.8868,1.8874,1.8789,1.8788,1.8788,0,1.8856,1.8862,1.8876,1.8875,1.8862,1.887,1.8865,1.8858,1.886,1.886,1.886,1.8862,1.8862,1.8864,1.8848,1.8831,1.8866,1.884,1.886,1.886,1.8867,1.8866,1.8936,1.8871,1.8871,1.8871,1.887,0,1.8907,1.8922,1.8898,1.8908,1.8925,1.8904,1.8922,1.8914,1.8909,1.8916,1.8894,1.8902,1.888,1.8886,1.8874,1.8889,1.8889,1.8883,1.888,1.8884,1.8885,1.8884,1.888,1.8872,1.8872,1.8872,1.8871,0,1.8964,1.8949,1.8963,1.895,1.8948,1.896,1.8949,1.8958,1.8947,1.8957,1.8958,1.8942,1.8948,1.8932,1.8935,1.8927,1.8948,1.8941,1.895,1.8947,1.8967,1.8965,1.9037,1.9045,1.8977,1.8977,1.8978,0,1.8997,1.9008,1.8996,1.8999,1.8996,1.9001,1.9003,1.8984,1.8987,1.8982,1.899,1.8994,1.8995,1.9006,1.8994,1.8997,1.8988,1.9013,1.8988,1.8993,1.8987,1.8986,1.8987,1.9018,1.9019,1.9019,1.902,0,1.9056,1.9048,1.905,1.9051,1.9053,1.9053,1.9051,1.9055,1.9035,1.9039,1.9044,1.9045,1.9048,1.9052,1.9052,1.9048,1.903,1.9028,1.9033,1.9037,1.9041,1.9038,1.8962,1.9026,1.9026,1.9025,1.9025,1.9025,1.9101,1.9109,1.9102,1.9106,1.9103,1.9102,1.9108,1.9099,1.9103,1.9104,1.9093,1.91,1.9095,1.9093,1.9091,1.9097,1.9085,1.9092,1.9093,1.9095,1.9097,1.9042,1.9097,1.9097,1.9096,1.9096,1.9096,0,1.9157,1.9152,1.9156,1.9153,1.9157,1.9141,1.9138,1.9142,1.9148,1.9145,1.9147,1.9153,1.9157,1.9147,1.9149,1.9155,1.9148,1.9157,1.9155,1.9154,1.9108,1.9104,1.9163,1.9163,1.9163,1.9163,1.9163,1.9163,1.9187,1.9201,1.9192,1.9204,1.9199,1.9205,1.9205,1.9204,1.9201,1.9209,1.9211,1.9205,1.9199,1.92,1.9203,1.92,1.9201,1.9213,1.9207,1.9164,1.9157,1.9151,1.9146,1.9214,1.9214,1.9252,1.9252,1.9253]},{"header":{"parameterUnit":"m.s-1","parameterCategory":1,"la1":30.2991,"la2":30.254,"lo1":-89.0895,"lo2":-89.0444,"dy":0.0017,"dx":0.0017,"nx":28,"ny":28,"refTime":"2025-04-08T03:00:00:Z","depth":0,"parameterNumber":3,"parameterNumberName":"V-component_of_WINDS"},"data":[0,0,0,0,0,0,0,0,0,0,0,0,0,0,0,0,0,0,0,0,0,0,0,0,0,0,0,0,0,0,0,0,0,0,0,0,0,0,0,0,0,0,0,0,0,0,0,0,0,0,0,0,0,0,0,0,0,0,-4.2945,-4.2947,0,-4.3197,-4.32,-4.3203,-4.3186,-4.3182,-4.3178,-4.3175,-4.3433,-4.3443,-4.3454,0,0,0,0,0,0,0,0,0,0,0,0,0,-4.2448,-4.2457,-4.2944,-4.2948,-4.2951,-4.3197,-4.32,-4.3204,-4.3186,-4.3182,-4.3177,-4.3173,-4.343,-4.3442,-4.3455,0,0,0,0,0,0,0,0,0,0,0,0,0,-4.2678,-4.246,-4.2944,-4.2972,-4.2977,-4.3196,-4.3201,-4.3205,-4.3187,-4.3182,-4.3176,-4.3171,-4.3426,-4.3441,-4.3456,-4.3665,0,0,-4.3504,-4.3511,0,0,0,0,0,0,0,0,-4.2665,-4.2697,-4.2965,-4.297,-4.2976,-4.3154,-4.312,-4.3359,-4.3189,-4.3107,-4.3175,-4.3168,-4.3345,-4.3367,-4.3427,-4.3677,-4.3688,-4.3505,-4.3515,-4.3521,-4.3526,0,0,0,0,0,0,0,-4.2649,-4.2686,-4.3045,-4.2968,-4.2976,-4.2972,-4.2999,-4.3165,-4.3255,-4.3114,-4.3113,-4.3143,-4.3347,-4.3412,-4.3433,-4.3692,-4.3505,-4.3519,-4.3528,-4.3534,-4.4128,-4.4134,0,0,0,0,0,0,-4.2627,-4.2672,-4.3036,-4.3052,-4.2804,-4.2985,-4.3015,-4.3103,-4.3253,-4.327,-4.3148,-4.3142,-4.3388,-4.3414,-4.3442,-4.3698,-4.3521,-4.3536,-4.3545,-4.4121,-4.4129,-4.4136,0,0,0,0,0,0,-4.2616,-4.266,-4.3026,-4.2862,-4.2909,-4.3,-4.3099,-4.3111,-4.3175,-4.3278,-4.3294,-4.3198,-4.3384,-4.342,-4.361,-4.3706,-4.3543,-4.3557,-4.4114,-4.4124,-4.4133,-4.4209,0,0,0,0,0,0,-4.2602,-4.2656,-4.2736,-4.2864,-4.2918,-4.3191,-4.3104,-4.312,-4.3202,-4.3196,-4.3329,-4.3346,-4.3383,-4.3587,-4.3625,-4.3725,-4.3569,-4.4106,-4.4118,-4.413,-4.4199,-4.422,-4.4239,0,0,0,0,0,-4.2585,-4.2747,-4.274,-4.2784,-4.3019,-4.3196,-4.3227,-4.3266,-4.321,-4.3291,-4.3358,-4.3341,-4.3689,-4.3606,-4.365,-4.3755,-4.41,-4.4115,-4.4129,-4.419,-4.4216,-4.4239,0,0,0,0,0,0,-4.2627,-4.2764,-4.2758,-4.2966,-4.307,-4.3193,-4.3297,-4.3292,-4.3414,-4.3403,-4.3447,-4.3477,-4.3669,-4.373,-4.3636,-4.3966,-4.3887,-4.3911,-4.3919,-4.3945,-4.3964,-4.3946,-4.3582,0,0,0,0,0,-4.2661,-4.2793,-4.2905,-4.3078,-4.313,-4.3205,-4.3283,-4.3305,-4.3413,-4.3457,-4.3537,-4.3644,-4.3777,-4.3864,-4.3992,-4.4207,-4.4237,-4.4301,-4.4321,-4.4337,-4.4358,-4.4478,-4.4509,-4.4184,-4.4183,-4.4183,0,0,-4.2732,-4.2823,-4.2903,-4.3089,-4.3172,-4.3308,-4.3242,-4.3388,-4.349,-4.3479,-4.3665,-4.3727,-4.3849,-4.4053,-4.4147,-4.411,-4.4454,-4.4355,-4.4367,-4.438,-4.4496,-4.4527,-4.4554,-4.4193,-4.4192,-4.419,0,0,-4.2931,-4.3012,-4.3167,-4.3251,-4.3377,-4.3426,-4.3463,-4.3587,-4.3629,-4.3815,-4.381,-4.3932,-4.416,-4.4248,-4.4322,-4.4556,-4.4546,-4.4596,-4.4702,-4.4819,-4.4845,-4.4868,-4.4954,-4.4983,-4.4616,-4.4616,-4.4616,0,-4.3004,-4.3209,-4.3247,-4.3396,-4.3478,-4.3475,-4.3632,-4.3712,-4.3873,-4.3931,-4.3887,-4.4175,-4.4256,-4.4482,-4.4539,-4.4599,-4.4644,-4.4582,-4.4838,-4.4861,-4.4883,-4.4966,-4.4998,-4.4621,-4.4621,-4.462,-4.462,0,-4.3293,-4.3435,-4.3545,-4.3702,-4.3797,-4.3949,-4.401,-4.4102,-4.4115,-4.4168,-4.4359,-4.4457,-4.4606,-4.466,-4.4674,-4.4889,-4.4863,-4.4828,-4.4751,-4.4919,-4.4998,-4.5029,-4.4629,-4.4627,-4.4626,-4.4624,0,0,-4.3527,-4.3703,-4.3743,-4.3815,-4.3955,-4.4066,-4.4218,-4.4364,-4.4443,-4.4554,-4.4684,-4.4878,-4.4847,-4.4932,-4.4955,-4.5058,-4.524,-4.5011,-4.5015,-4.5052,-4.5485,-4.5512,-4.5548,-4.5233,-4.5239,-4.5244,-4.5476,0,-4.3743,-4.4013,-4.4052,-4.4292,-4.4425,-4.4424,-4.4557,-4.4657,-4.4711,-4.4832,-4.4891,-4.5029,-4.4977,-4.5028,-4.5129,-4.5196,-4.5328,-4.518,-4.5356,-4.5362,-4.5328,-4.5588,-4.5617,-4.583,-4.5506,-4.5511,-4.5515,0,-4.4031,-4.4151,-4.4404,-4.4526,-4.4584,-4.4703,-4.4841,-4.4956,-4.507,-4.5102,-4.5197,-4.5208,-4.5367,-4.5281,-4.5502,-4.54,-4.5475,-4.5519,-4.5528,-4.5548,-4.545,-4.5617,-4.5899,-4.5932,-4.5563,-4.5559,-4.5556,0,-4.4179,-4.4404,-4.4585,-4.4646,-4.4793,-4.4877,-4.4942,-4.5051,-4.5137,-4.5257,-4.5313,-4.545,-4.5526,-4.5632,-4.568,-4.5613,-4.5899,-4.5816,-4.5931,-4.593,-4.5993,-4.5989,-4.6293,-4.6037,-4.6036,-4.6036,-4.6035,0,-4.4417,-4.4573,-4.4654,-4.4766,-4.494,-4.4983,-4.5155,-4.5217,-4.5314,-4.5438,-4.5444,-4.5561,-4.5617,-4.5742,-4.578,-4.5959,-4.5992,-4.6023,-4.6032,-4.6025,-4.6021,-4.6075,-4.6063,-4.6044,-4.6042,-4.6041,-4.6039,0,-4.4614,-4.4674,-4.4872,-4.4995,-4.503,-4.5153,-4.5259,-4.5368,-4.542,-4.5577,-4.5617,-4.57,-4.5848,-4.5906,-4.6087,-4.6113,-4.6319,-4.6314,-4.6281,-4.6284,-4.6397,-4.6386,-4.6749,-4.68,-4.6507,-4.651,-4.6512,0,-4.4763,-4.4883,-4.5019,-4.5103,-4.5171,-4.5306,-4.5394,-4.5441,-4.5532,-4.5672,-4.5764,-4.5912,-4.6033,-4.6269,-4.6346,-4.6484,-4.6485,-4.6603,-4.6506,-4.6495,-4.649,-4.6483,-4.6496,-4.6621,-4.6624,-4.6626,-4.6628,0,-4.5022,-4.5047,-4.5173,-4.5311,-4.5416,-4.5527,-4.5634,-4.5703,-4.5766,-4.5869,-4.6021,-4.6114,-4.6299,-4.6447,-4.659,-4.6657,-4.6655,-4.6658,-4.6692,-4.6687,-4.6663,-4.668,-4.6332,-4.665,-4.6648,-4.6646,-4.6645,-4.6644,-4.5202,-4.5309,-4.5422,-4.5563,-4.5649,-4.575,-4.5859,-4.5926,-4.6053,-4.6208,-4.6228,-4.6391,-4.6503,-4.6695,-4.6768,-4.6897,-4.6866,-4.6915,-4.6928,-4.694,-4.6949,-4.6641,-4.6922,-4.6922,-4.6921,-4.6921,-4.6921,0,-4.5464,-4.5536,-4.5666,-4.5817,-4.5928,-4.5916,-4.6034,-4.6129,-4.6273,-4.6377,-4.6496,-4.6671,-4.6814,-4.6903,-4.7047,-4.7133,-4.7136,-4.7169,-4.7165,-4.7181,-4.6967,-4.6924,-4.7165,-4.7165,-4.7165,-4.7165,-4.7165,-4.7165,-4.5613,-4.5795,-4.5832,-4.6057,-4.6129,-4.6289,-4.6358,-4.6452,-4.6536,-4.6731,-4.6851,-4.6907,-4.7006,-4.7157,-4.7288,-4.731,-4.7364,-4.7401,-4.7421,-4.7221,-4.7195,-4.7171,-4.7131,-4.7412,-4.7412,-4.7624,-4.7626,-4.7628]}]]